Naval Air Station Jrb Fort Worth, TX

2:35 AM CDT on August 25, 2016 (GMT -0500)
Fort Worth Naval Air Station Jrb

Weather History for KNFW - January, 2013

Change the Weather History Date:

Saturday, January 5, 2013

  Actual Average Record
Temperature  
Mean Temperature 47 °F -  
Max Temperature 57 °F 55 °F 52 °F (2015)
Min Temperature 37 °F 36 °F 30 °F (2015)
Degree Days  
Heating Degree Days 18    
Moisture  
Dew Point 34 °F    
Average Humidity 70    
Maximum Humidity 89    
Minimum Humidity 37    
Precipitation  
Precipitation 0.00 in - - ()
Sea Level Pressure  
Sea Level Pressure 30.31 in    
Wind  
Wind Speed 6 mph (SSW)    
Max Wind Speed 9 mph    
Max Gust Speed -    
Visibility 10 miles    
Events      
Averages and records for this station are not official NWS values.
T = Trace of Precipitation, MM = Missing Value Source: NWS Daily Summary

Daily Weather History Graph

Daily Weather History Graph

Search for Another Location

Airport or City:

Trip Planner

Search our weather history database for the weather conditions in past years. The results will help you decide how hot, cold, wet, or windy it might be!

Date:

Astronomy

Jan. 05, 2013 Rise Set
Actual Time 7:32 AM CST 5:38 PM CST
Civil Twilight 7:05 AM CST 6:05 PM CST
Nautical Twilight 6:35 AM CST 6:35 PM CST
Astronomical Twilight 6:05 AM CST 7:05 PM CST
Moon 12:51 AM CST (1/5) 12:19 PM CST (1/5)
Length of Visible Light 10h 59m
Length of Day
10h 05m
Last Quarter, 44% of the Moon is Illuminated
Jan 5
Last Quarter
Jan 11
New
Jan 18
First Quarter
Jan 26
Full
Feb 3
Last Quarter

Hourly Weather History & Observations

Time (CST) Temp. Windchill Dew Point Humidity Pressure Visibility Wind Dir Wind Speed Gust Speed Precip Events Conditions
12:52 AM 43.0 °F 37.7 °F 35.1 °F 74% 30.35 in 10.0 mi WSW 9.2 mph - N/A   Overcast
1:52 AM 43.0 °F 38.8 °F 35.1 °F 74% 30.35 in 10.0 mi SSW 6.9 mph - N/A   Overcast
2:52 AM 42.1 °F 38.4 °F 35.1 °F 76% 30.34 in 10.0 mi SSW 5.8 mph - N/A   Overcast
3:52 AM 39.0 °F 35.7 °F 35.1 °F 86% 30.33 in 10.0 mi South 4.6 mph - N/A   Clear
4:48 AM 37.4 °F 32.1 °F 30.2 °F 75% 30.37 in 10.0 mi South 6.9 mph - N/A   Partly Cloudy
4:52 AM 37.0 °F 31.6 °F 32.0 °F 82% 30.31 in 10.0 mi South 6.9 mph - N/A   Clear
5:10 AM 37.4 °F 33.8 °F 33.8 °F 87% 30.37 in 10.0 mi South 4.6 mph - N/A   Partly Cloudy
5:47 AM 39.2 °F 37.0 °F 35.6 °F 87% 30.37 in 9.0 mi SW 3.5 mph - N/A   Mostly Cloudy
5:52 AM 39.0 °F 35.7 °F 36.0 °F 89% 30.32 in 9.0 mi SSW 4.6 mph - N/A   Mostly Cloudy
6:52 AM 39.0 °F 34.0 °F 35.1 °F 86% 30.32 in 10.0 mi SSW 6.9 mph - N/A   Overcast
7:08 AM 39.2 °F 33.6 °F 35.6 °F 87% 30.38 in 10.0 mi SSW 8.1 mph - N/A   Overcast
7:52 AM 39.9 °F 35.8 °F 34.0 °F 79% 30.33 in 10.0 mi SSW 5.8 mph - N/A   Overcast
7:59 AM 39.2 °F 35.9 °F 33.8 °F 81% 30.39 in 10.0 mi SSW 4.6 mph - N/A   Overcast
8:09 AM 39.2 °F 35.9 °F 33.8 °F 81% 30.39 in 10.0 mi SSW 4.6 mph - N/A   Overcast
8:23 AM 39.2 °F 37.0 °F 33.8 °F 81% 30.39 in 10.0 mi SSW 3.5 mph - N/A   Mostly Cloudy
8:52 AM 39.9 °F 35.1 °F 35.1 °F 83% 30.33 in 10.0 mi South 6.9 mph - N/A   Overcast
9:24 AM 42.8 °F 38.6 °F 35.6 °F 76% 30.39 in 10.0 mi South 6.9 mph - N/A   Scattered Clouds
9:52 AM 44.1 °F 39.0 °F 34.0 °F 68% 30.33 in 10.0 mi SSW 9.2 mph - N/A   Overcast
10:52 AM 45.0 °F 40.1 °F 34.0 °F 65% 30.33 in 10.0 mi SSW 9.2 mph - N/A   Overcast
11:42 AM 48.2 °F - 33.8 °F 58% 30.35 in 10.0 mi SW 9.2 mph - N/A   Scattered Clouds
11:52 AM 48.0 °F - 34.0 °F 58% 30.30 in 10.0 mi SW 9.2 mph - N/A   Partly Cloudy
12:52 PM 51.1 °F - 34.0 °F 52% 30.24 in 10.0 mi SSW 9.2 mph - N/A   Partly Cloudy
1:52 PM 54.0 °F - 33.1 °F 45% 30.21 in 10.0 mi SSW 8.1 mph - N/A   Partly Cloudy
2:52 PM 55.9 °F - 33.1 °F 42% 30.18 in 10.0 mi South 6.9 mph - N/A   Clear
3:52 PM 57.9 °F - 32.0 °F 37% 30.19 in 10.0 mi South 8.1 mph - N/A   Clear
4:52 PM 55.9 °F - 33.1 °F 42% 30.19 in 10.0 mi SE 3.5 mph - N/A   Clear
5:52 PM 54.0 °F - 33.1 °F 45% 30.21 in 10.0 mi Calm Calm - N/A   Clear
6:52 PM 50.0 °F - 35.1 °F 57% 30.23 in 10.0 mi SE 6.9 mph - N/A   Clear
7:52 PM 46.9 °F - 35.1 °F 63% 30.24 in 10.0 mi SE 4.6 mph - N/A   Clear
8:52 PM 45.0 °F - 34.0 °F 65% 30.25 in 10.0 mi Calm Calm - N/A   Clear
9:52 PM 41.0 °F 39.0 °F 34.0 °F 76% 30.27 in 10.0 mi WNW 3.5 mph - N/A   Clear
10:52 PM 39.9 °F 37.8 °F 34.0 °F 79% 30.28 in 10.0 mi WNW 3.5 mph - N/A   Clear
11:52 PM 39.0 °F - 34.0 °F 82% 30.29 in 10.0 mi Calm Calm - N/A   Clear